Find Starlink 30275

NORAD ID: 57667 Int'l Des: 2023-124 Owner: SPXS Country: US Constellation: starlink operational
LEOCIRCULAR

Live Position

Loading 3D Globe...

About Starlink 30275

Description loading...

Upcoming Passes

Passes for default location (London). Set your location on the main map for personalized predictions.

Altitude History

Loading altitude history...

Two-Line Element Set

1 57667U 23124E 26125.92012210 .00000269 00000-0 21186-4 0 9995
2 57667 53.1609 301.2404 0000770 112.4112 247.6970 15.30192471152328
Epoch: May 5, 2026 • Age: 26 hours

Current Status

Altitude 486.3 km
Velocity 7.62 km/s
Sub-Earth Point -34.35°S, 80.17°W
Launch Date Aug 22, 2023
Age 2.7 years
Type internet

Technical Details

Classification Payload
Mass 730.00 kg
Dry Mass 700.00 kg
Total Mass 730.00 kg
Length 0.30 m
Diameter 4.10 m
Span 29.00 m
Shape Box + pan
Manufacturer SPXS
Bus Type Starlink V2M
Phase Status In Orbit
Owner/State SPXS/US

Most Searched